[[{"header":{"parameterUnit":"m.s-1","parameterCategory":2,"la1":30.2991,"la2":30.254,"lo1":-89.0895,"lo2":-89.0444,"dy":0.0017,"dx":0.0017,"nx":28,"ny":28,"refTime":"2024-06-09T03:00:00:Z","depth":"0","parameterNumber":2,"parameterNumberName":"U-component_of_CURRENTS"},"data":[0,0,0,0,0,0,0,0,0,0,0,0,0,0,0,0,0,0,0,0,0,0,0,0,0,0,0,0,0,0,0,0,0,0,0,0,0,0,0,0,0,0,0,0,0,0,0,0,0,0,0,0,0,0,0,0,0,0,0.3359,0.3359,0,0.3348,0.3348,0.3348,0.3321,0.3321,0.3321,0.332,0.3295,0.3294,0.3294,0,0,0,0,0,0,0,0,0,0,0,0,0,0.3368,0.3368,0.3359,0.3359,0.3359,0.3349,0.3348,0.3348,0.3321,0.3321,0.3321,0.332,0.3295,0.3294,0.3294,0,0,0,0,0,0,0,0,0,0,0,0,0,0.3359,0.3368,0.3359,0.3347,0.3346,0.3349,0.3348,0.3348,0.3322,0.3321,0.3321,0.332,0.3295,0.3294,0.3294,0.33,0,0,0.3292,0.3292,0,0,0,0,0,0,0,0,0.336,0.3358,0.3348,0.3348,0.3346,0.3338,0.3342,0.3332,0.3322,0.3328,0.332,0.332,0.331,0.3308,0.3304,0.3299,0.3298,0.3292,0.3292,0.3291,0.3291,0,0,0,0,0,0,0,0.336,0.3359,0.3352,0.3349,0.3347,0.3346,0.3344,0.334,0.332,0.3327,0.3326,0.3329,0.3309,0.3304,0.3303,0.3297,0.3292,0.3291,0.3291,0.3291,0.3347,0.3348,0,0,0,0,0,0,0.3366,0.3359,0.3353,0.3352,0.3355,0.3346,0.3344,0.3339,0.332,0.3317,0.333,0.3328,0.3305,0.3304,0.3302,0.3348,0.3291,0.3291,0.3291,0.3345,0.3347,0.3349,0,0,0,0,0,0,0.3367,0.3366,0.3353,0.3358,0.3357,0.3347,0.3342,0.3339,0.3341,0.3322,0.3319,0.3335,0.3305,0.3303,0.3313,0.3345,0.3291,0.329,0.3343,0.3346,0.3348,0.3414,0,0,0,0,0,0,0.3367,0.3366,0.3367,0.3358,0.3357,0.3366,0.3343,0.3339,0.3344,0.3342,0.3326,0.3322,0.3304,0.3314,0.3312,0.3343,0.329,0.334,0.3344,0.3347,0.341,0.3419,0.3426,0,0,0,0,0,0.3367,0.337,0.3366,0.3366,0.3357,0.3367,0.3367,0.3356,0.3345,0.3354,0.3345,0.3323,0.3335,0.3314,0.3312,0.3344,0.3339,0.3343,0.3347,0.3406,0.3417,0.3426,0,0,0,0,0,0,0.3373,0.3368,0.3363,0.3364,0.3372,0.3364,0.3369,0.3364,0.3363,0.3359,0.3338,0.3335,0.3362,0.3345,0.3323,0.3373,0.3337,0.334,0.3382,0.3392,0.3401,0.3405,0.3289,0,0,0,0,0,0.3377,0.3377,0.3378,0.338,0.3385,0.3379,0.3382,0.3378,0.3376,0.3374,0.3362,0.336,0.3377,0.3377,0.3381,0.34,0.3411,0.3423,0.3431,0.3438,0.3443,0.3505,0.352,0.3362,0.3362,0.3362,0,0,0.3376,0.3378,0.3375,0.3382,0.3383,0.3397,0.3379,0.3389,0.3404,0.3373,0.3384,0.3388,0.3391,0.3418,0.3428,0.3405,0.349,0.3443,0.3449,0.345,0.3511,0.3526,0.354,0.3365,0.3365,0.3364,0,0,0.3382,0.3382,0.3385,0.3398,0.341,0.3413,0.3421,0.342,0.3424,0.3442,0.3434,0.3459,0.3462,0.3477,0.3486,0.3545,0.3537,0.3548,0.3587,0.3648,0.3661,0.3673,0.3708,0.3723,0.3546,0.3546,0.3547,0,0.3384,0.3385,0.3391,0.3406,0.3417,0.3424,0.3438,0.3452,0.3455,0.3472,0.3455,0.35,0.3496,0.3551,0.3571,0.3565,0.3588,0.3545,0.3659,0.3671,0.3682,0.3715,0.373,0.355,0.355,0.3549,0.3549,0,0.3392,0.34,0.3408,0.3427,0.3447,0.346,0.3484,0.3505,0.3513,0.3529,0.358,0.3584,0.3613,0.3623,0.3611,0.3692,0.3679,0.3668,0.3632,0.3702,0.3732,0.3747,0.3555,0.3554,0.3553,0.3552,0,0,0.3373,0.3404,0.3407,0.3419,0.3457,0.347,0.3517,0.3559,0.3597,0.3615,0.3671,0.3703,0.3711,0.3723,0.3721,0.3764,0.3859,0.3748,0.3749,0.3779,0.3985,0.3921,0.393,0.3872,0.3875,0.3877,0.3974,0,0.3374,0.3397,0.3419,0.345,0.3463,0.3501,0.3547,0.3594,0.3634,0.3693,0.3731,0.3781,0.375,0.3773,0.3817,0.3858,0.3901,0.3833,0.3914,0.3916,0.385,0.3947,0.3773,0.384,0.3988,0.399,0.3992,0,0.3368,0.3387,0.3409,0.346,0.3471,0.35,0.3577,0.3616,0.3715,0.3756,0.3821,0.3853,0.3931,0.3892,0.3997,0.3957,0.3977,0.3995,0.4,0.3926,0.388,0.3795,0.3861,0.3742,0.4014,0.4012,0.4011,0,0.3337,0.338,0.3393,0.3409,0.3472,0.3501,0.3541,0.3632,0.369,0.38,0.3868,0.3949,0.4008,0.4058,0.4096,0.4061,0.4207,0.4165,0.4123,0.4117,0.3977,0.3954,0.3932,0.4242,0.4241,0.4241,0.4241,0,0.3319,0.3331,0.3379,0.3385,0.3426,0.348,0.3544,0.3606,0.3723,0.3804,0.3891,0.3976,0.4057,0.4142,0.4152,0.4193,0.4258,0.4152,0.4152,0.3993,0.3972,0.3866,0.3819,0.4245,0.4244,0.4243,0.4243,0,0.3274,0.3302,0.3322,0.3383,0.3405,0.3433,0.3538,0.3589,0.3712,0.3827,0.3873,0.4034,0.4141,0.4207,0.4301,0.4265,0.4178,0.4295,0.4091,0.4064,0.3877,0.384,0.3696,0.3598,0.4262,0.4261,0.426,0,0.3248,0.3252,0.3305,0.3317,0.334,0.3397,0.3437,0.3563,0.3629,0.3849,0.3902,0.4068,0.4154,0.4282,0.4264,0.4287,0.4156,0.4119,0.4014,0.3864,0.3825,0.3669,0.3585,0.3856,0.3852,0.3849,0.3846,0,0.3202,0.322,0.3237,0.3262,0.3292,0.3335,0.3407,0.3471,0.3626,0.3738,0.3892,0.3991,0.4131,0.4087,0.4127,0.4112,0.39,0.4052,0.3959,0.3563,0.3331,0.3235,0.3785,0.3818,0.382,0.3823,0.3824,0.3825,0.3165,0.3163,0.3181,0.3193,0.3224,0.3247,0.3256,0.3356,0.3452,0.3583,0.3763,0.3831,0.389,0.3926,0.3889,0.3708,0.3716,0.356,0.3549,0.3419,0.3249,0.3729,0.3722,0.3724,0.3726,0.3727,0.3729,0,0.3097,0.3097,0.3109,0.3109,0.3092,0.3145,0.3207,0.3201,0.3253,0.3396,0.3501,0.3529,0.3475,0.3485,0.3374,0.3221,0.3068,0.3117,0.2856,0.2818,0.3303,0.3209,0.3014,0.3014,0.3014,0.3014,0.3014,0.3015,0.3063,0.303,0.3023,0.2961,0.2962,0.291,0.2918,0.2939,0.3004,0.3014,0.3015,0.308,0.3176,0.3097,0.2907,0.2835,0.2618,0.2468,0.2501,0.2842,0.2882,0.2919,0.282,0.2546,0.2545,0.1868,0.1863,0.186]},{"header":{"parameterUnit":"m.s-1","parameterCategory":2,"la1":30.2991,"la2":30.254,"lo1":-89.0895,"lo2":-89.0444,"dy":0.0017,"dx":0.0017,"nx":28,"ny":28,"refTime":"2024-06-09T03:00:00:Z","depth":"0","parameterNumber":3,"parameterNumberName":"V-component_of_CURRENTS"},"data":[0,0,0,0,0,0,0,0,0,0,0,0,0,0,0,0,0,0,0,0,0,0,0,0,0,0,0,0,0,0,0,0,0,0,0,0,0,0,0,0,0,0,0,0,0,0,0,0,0,0,0,0,0,0,0,0,0,0,0.0394,0.0394,0,0.0356,0.0356,0.0355,0.0325,0.0325,0.0324,0.0324,0.0267,0.0265,0.0264,0,0,0,0,0,0,0,0,0,0,0,0,0,0.0389,0.039,0.0394,0.0394,0.0394,0.0356,0.0356,0.0355,0.0325,0.0325,0.0324,0.0324,0.0267,0.0266,0.0264,0,0,0,0,0,0,0,0,0,0,0,0,0,0.0374,0.039,0.0394,0.0375,0.0373,0.0356,0.0355,0.0355,0.0325,0.0325,0.0324,0.0324,0.0268,0.0266,0.0264,0.0256,0,0,0.0257,0.0257,0,0,0,0,0,0,0,0,0.0375,0.0374,0.0378,0.0377,0.0374,0.0346,0.0333,0.0321,0.0325,0.0342,0.0324,0.0324,0.0293,0.0289,0.028,0.0253,0.0251,0.0257,0.0256,0.0255,0.0255,0,0,0,0,0,0,0,0.0376,0.0375,0.0378,0.0378,0.0376,0.0351,0.0349,0.033,0.0317,0.034,0.0338,0.0336,0.0291,0.0282,0.0279,0.025,0.0257,0.0255,0.0254,0.0253,0.0219,0.022,0,0,0,0,0,0,0.0387,0.0377,0.0379,0.0377,0.0376,0.0351,0.0349,0.0354,0.0318,0.0313,0.0337,0.0335,0.0286,0.0281,0.0276,0.0283,0.0255,0.0253,0.0252,0.0219,0.0219,0.022,0,0,0,0,0,0,0.0387,0.0388,0.038,0.0376,0.0374,0.0352,0.0358,0.0354,0.0348,0.0316,0.031,0.0336,0.0285,0.0279,0.027,0.028,0.0252,0.025,0.0219,0.0219,0.0219,0.0284,0,0,0,0,0,0,0.0387,0.0388,0.0395,0.0378,0.0375,0.038,0.0358,0.0353,0.0348,0.0346,0.0314,0.0308,0.0285,0.0273,0.0268,0.0276,0.0249,0.0218,0.0219,0.0219,0.0281,0.0287,0.0291,0,0,0,0,0,0.0387,0.0401,0.0395,0.0395,0.0385,0.0381,0.0377,0.0359,0.0348,0.0352,0.0331,0.0309,0.0273,0.0272,0.0265,0.0274,0.0218,0.0219,0.0219,0.0279,0.0286,0.0291,0,0,0,0,0,0,0.0402,0.0399,0.0392,0.0404,0.0397,0.0377,0.0379,0.0365,0.0351,0.0348,0.0316,0.0309,0.0302,0.0279,0.0279,0.0264,0.024,0.024,0.0288,0.0294,0.0298,0.0321,0.0247,0,0,0,0,0,0.0409,0.042,0.0409,0.0419,0.0419,0.0399,0.0395,0.0383,0.0368,0.0362,0.034,0.0316,0.0299,0.0291,0.027,0.0266,0.0244,0.0265,0.027,0.0274,0.0287,0.0263,0.0268,0.0222,0.0222,0.0222,0,0,0.0417,0.0417,0.0422,0.0423,0.0415,0.0426,0.0396,0.0395,0.0404,0.0358,0.0362,0.0332,0.0301,0.0296,0.0291,0.028,0.0274,0.0275,0.0279,0.029,0.0265,0.0269,0.0273,0.0223,0.0223,0.0222,0,0,0.0443,0.044,0.0459,0.0458,0.0454,0.0445,0.0449,0.0433,0.0427,0.0426,0.0393,0.0373,0.035,0.0329,0.0316,0.0335,0.03,0.0324,0.0369,0.0346,0.035,0.0353,0.0329,0.0329,0.0328,0.0328,0.0329,0,0.0452,0.0478,0.0463,0.0481,0.0489,0.0461,0.0485,0.0475,0.0456,0.046,0.0438,0.0403,0.0368,0.0367,0.0369,0.0347,0.0329,0.0352,0.0353,0.0356,0.0358,0.0332,0.0332,0.0332,0.0331,0.0331,0.0331,0,0.0494,0.0513,0.0525,0.0543,0.0548,0.0563,0.0553,0.0553,0.0541,0.0529,0.0522,0.0474,0.0455,0.0435,0.0407,0.0406,0.0386,0.0362,0.0343,0.0367,0.0338,0.0336,0.0336,0.0335,0.0334,0.0333,0,0,0.0521,0.0551,0.0555,0.0581,0.0585,0.0599,0.0615,0.0628,0.0652,0.0614,0.0641,0.0587,0.0553,0.0536,0.0491,0.0467,0.0452,0.0426,0.0423,0.041,0.0403,0.039,0.0386,0.043,0.043,0.043,0.0377,0,0.0562,0.0617,0.0617,0.0671,0.0703,0.0689,0.0716,0.0718,0.0712,0.0727,0.0671,0.0674,0.0595,0.0591,0.0549,0.0485,0.0452,0.0469,0.0376,0.0373,0.0364,0.0386,0.0425,0.0381,0.0375,0.0375,0.0374,0,0.0609,0.0643,0.0705,0.0756,0.0769,0.0795,0.084,0.086,0.0861,0.0856,0.0832,0.0791,0.0748,0.0681,0.0572,0.0589,0.0501,0.0442,0.0438,0.0405,0.0358,0.0355,0.0378,0.0255,0.0372,0.0372,0.0372,0,0.0655,0.0708,0.0766,0.078,0.0827,0.0857,0.0885,0.0901,0.0943,0.0945,0.0977,0.0898,0.0886,0.0766,0.0624,0.0603,0.0511,0.0462,0.0365,0.0362,0.0368,0.0367,0.027,0.0385,0.0385,0.0386,0.0386,0,0.0707,0.0752,0.0795,0.0827,0.0912,0.0918,0.1004,0.1016,0.1057,0.1135,0.1051,0.1095,0.091,0.0831,0.0675,0.0525,0.0542,0.0384,0.0353,0.0391,0.0392,0.0261,0.0187,0.0384,0.0384,0.0384,0.0385,0,0.0751,0.0774,0.0849,0.0909,0.0938,0.1,0.1096,0.1157,0.1183,0.1284,0.1297,0.1248,0.1154,0.096,0.0777,0.0612,0.0391,0.0396,0.0452,0.0429,0.0213,0.0141,0.0011,-0.0037,0.028,0.0279,0.0279,0,0.078,0.0822,0.0914,0.0969,0.1002,0.1094,0.1166,0.1218,0.1297,0.1396,0.1458,0.1401,0.1399,0.1113,0.0818,0.0548,0.0399,0.0382,0.0337,0.0218,0.0115,0.0058,0.0024,0.0365,0.0365,0.0366,0.0366,0,0.0835,0.0865,0.0927,0.1044,0.1129,0.1238,0.1347,0.1436,0.1525,0.1634,0.1754,0.1767,0.1506,0.1264,0.0872,0.0666,0.0314,0.0377,0.0243,0.0171,0.0115,0.0051,0.0376,0.0368,0.0367,0.0367,0.0367,0.0367,0.0874,0.093,0.1013,0.1126,0.1229,0.1372,0.1487,0.1629,0.1804,0.1993,0.1973,0.2042,0.1667,0.1154,0.086,0.0347,0.0328,0.019,0.0112,0.0065,0.0024,0.0354,0.0314,0.0314,0.0314,0.0313,0.0313,0,0.0921,0.0987,0.1091,0.1228,0.1347,0.14,0.16,0.1742,0.1983,0.2156,0.2278,0.2135,0.1694,0.1195,0.0507,0.0155,0.0029,-0.0042,-0.011,-0.0135,0.0156,0.0166,0.0107,0.0107,0.0107,0.0107,0.0108,0.0108,0.0947,0.1046,0.1102,0.1299,0.1402,0.1588,0.1716,0.1957,0.2131,0.2369,0.2426,0.241,0.2027,0.0851,0.0092,-0.009,-0.0314,-0.0373,-0.0492,-0.0294,-0.0278,-0.0263,-0.0271,-0.0421,-0.0422,-0.072,-0.0723,-0.0726]}],[{"header":{"parameterUnit":"m.s-1","parameterCategory":2,"la1":30.2991,"la2":30.254,"lo1":-89.0895,"lo2":-89.0444,"dy":0.0017,"dx":0.0017,"nx":28,"ny":28,"refTime":"2024-06-09T03:00:00:Z","depth":"2","parameterNumber":2,"parameterNumberName":"U-component_of_CURRENTS"},"data":[0,0,0,0,0,0,0,0,0,0,0,0,0,0,0,0,0,0,0,0,0,0,0,0,0,0,0,0,0,0,0,0,0,0,0,0,0,0,0,0,0,0,0,0,0,0,0,0,0,0,0,0,0,0,0,0,0,0,0.2888,0.2888,0,0.2889,0.2889,0.2889,0.288,0.288,0.288,0.288,0.2875,0.2875,0.2875,0,0,0,0,0,0,0,0,0,0,0,0,0,0.2884,0.2884,0.2888,0.2888,0.2888,0.2889,0.2889,0.2889,0.288,0.288,0.288,0.288,0.2875,0.2875,0.2875,0,0,0,0,0,0,0,0,0,0,0,0,0,0.2883,0.2883,0.2887,0.2885,0.2885,0.2889,0.2889,0.2889,0.288,0.288,0.288,0.288,0.2875,0.2875,0.2875,0.2876,0,0,0.2875,0.2875,0,0,0,0,0,0,0,0,0.2883,0.2883,0.2886,0.2886,0.2886,0.2886,0.2886,0.2885,0.288,0.288,0.288,0.288,0.288,0.2879,0.2877,0.2875,0.2875,0.2875,0.2874,0.2874,0.2874,0,0,0,0,0,0,0,0.2883,0.2883,0.2886,0.2886,0.2886,0.2887,0.2887,0.2886,0.2878,0.288,0.288,0.2884,0.2879,0.2877,0.2877,0.2875,0.2875,0.2874,0.2874,0.2874,0.2935,0.2937,0,0,0,0,0,0,0.2887,0.2883,0.2886,0.2886,0.2887,0.2887,0.2887,0.2884,0.2879,0.2878,0.2884,0.2883,0.2877,0.2877,0.2876,0.2929,0.2874,0.2874,0.2874,0.2933,0.2935,0.2937,0,0,0,0,0,0,0.2887,0.2887,0.2886,0.2887,0.2887,0.2888,0.2885,0.2885,0.2895,0.2882,0.2881,0.2897,0.2877,0.2877,0.2894,0.2926,0.2874,0.2874,0.2931,0.2934,0.2936,0.3,0,0,0,0,0,0,0.2887,0.2887,0.2892,0.2887,0.2887,0.2902,0.2885,0.2885,0.2898,0.2897,0.2892,0.2891,0.2877,0.2894,0.2894,0.2925,0.2874,0.2929,0.2933,0.2936,0.2996,0.3004,0.3012,0,0,0,0,0,0.2886,0.2892,0.2892,0.2893,0.2892,0.2903,0.2904,0.2902,0.2899,0.291,0.2909,0.2892,0.2915,0.2895,0.2894,0.2927,0.2928,0.2932,0.2935,0.2992,0.3003,0.3012,0,0,0,0,0,0,0.2893,0.2892,0.2892,0.2897,0.2907,0.2903,0.2913,0.2913,0.292,0.2921,0.2907,0.2906,0.2938,0.2924,0.2904,0.2956,0.2921,0.2925,0.2965,0.2974,0.2982,0.2983,0.2874,0,0,0,0,0,0.2897,0.2901,0.2905,0.2912,0.2918,0.2919,0.2925,0.2926,0.293,0.2933,0.2929,0.2933,0.2951,0.2956,0.2962,0.2984,0.2992,0.3007,0.3015,0.3022,0.3024,0.308,0.3093,0.295,0.295,0.295,0,0,0.2898,0.2902,0.2903,0.2914,0.2919,0.2934,0.2922,0.2938,0.2954,0.2932,0.2953,0.2961,0.2964,0.2994,0.3007,0.2987,0.3068,0.3027,0.3032,0.3031,0.3085,0.3099,0.3111,0.2952,0.2952,0.2951,0,0,0.2905,0.2911,0.2917,0.293,0.2947,0.2953,0.2963,0.2969,0.2979,0.3003,0.2999,0.3027,0.3039,0.3052,0.3061,0.3117,0.3112,0.3123,0.316,0.3215,0.3227,0.3238,0.3269,0.3282,0.3124,0.3124,0.3124,0,0.2909,0.2913,0.2923,0.2938,0.2951,0.2965,0.298,0.2997,0.3009,0.3028,0.302,0.3069,0.307,0.3119,0.3139,0.3136,0.3158,0.3122,0.3226,0.3237,0.3247,0.3276,0.329,0.3127,0.3127,0.3127,0.3126,0,0.2915,0.2928,0.2937,0.2959,0.2979,0.2996,0.3022,0.3047,0.3064,0.3083,0.3136,0.3145,0.3177,0.3187,0.3179,0.3253,0.3243,0.3233,0.32,0.3265,0.3292,0.3305,0.3133,0.3131,0.313,0.3129,0,0,0.2898,0.2932,0.2936,0.2947,0.2991,0.3002,0.3051,0.3094,0.3131,0.316,0.3214,0.3249,0.3264,0.3275,0.3277,0.3317,0.3406,0.3306,0.3308,0.3335,0.3521,0.3448,0.3454,0.342,0.3423,0.3425,0.3512,0,0.2899,0.2921,0.2945,0.2975,0.2988,0.3029,0.3072,0.312,0.3167,0.3226,0.3265,0.3317,0.3296,0.3323,0.3365,0.3403,0.3443,0.3382,0.3456,0.3457,0.3383,0.3468,0.3169,0.3216,0.3524,0.3527,0.3528,0,0.2892,0.291,0.2933,0.2978,0.2989,0.3017,0.3092,0.3135,0.3233,0.3276,0.3346,0.3381,0.3457,0.3427,0.3525,0.3492,0.3513,0.353,0.3534,0.345,0.3409,0.3201,0.3228,0.355,0.3548,0.3546,0.3545,0,0.2857,0.2899,0.2914,0.2929,0.2988,0.3015,0.306,0.3152,0.3209,0.3322,0.3386,0.3466,0.3528,0.3575,0.3617,0.3587,0.3718,0.3681,0.3629,0.3624,0.3373,0.3341,0.375,0.375,0.3749,0.3749,0.3749,0,0.2838,0.285,0.2898,0.2903,0.2941,0.2995,0.3061,0.3123,0.324,0.3315,0.3411,0.3484,0.3573,0.3653,0.3665,0.3697,0.3764,0.3653,0.3652,0.3386,0.3356,0.3641,0.3627,0.3752,0.3752,0.3751,0.375,0,0.2791,0.2822,0.284,0.2898,0.2921,0.2951,0.3059,0.3105,0.3231,0.3341,0.3387,0.3537,0.3637,0.3707,0.3797,0.3759,0.3791,0.3779,0.3453,0.3412,0.3643,0.3631,0.3731,0.373,0.3728,0.3727,0.3726,0,0.2765,0.2768,0.2824,0.2837,0.2862,0.2922,0.2961,0.3086,0.3146,0.3353,0.3394,0.3555,0.362,0.3738,0.3712,0.373,0.3794,0.3448,0.333,0.3658,0.3647,0.3638,0.3628,0.3023,0.3016,0.3011,0.3007,0,0.2715,0.2738,0.2753,0.2782,0.2812,0.2852,0.2922,0.2972,0.3121,0.3213,0.3333,0.3414,0.3544,0.3428,0.3474,0.3437,0.3421,0.3339,0.3786,0.3078,0.2998,0.2985,0.2997,0.2958,0.2963,0.2967,0.2969,0.2971,0.2679,0.2676,0.2696,0.271,0.2741,0.2752,0.2747,0.2825,0.2895,0.2992,0.316,0.3179,0.3219,0.3141,0.3044,0.2969,0.3203,0.3031,0.3044,0.3064,0.297,0.2893,0.2815,0.2818,0.2822,0.2825,0.2827,0,0.2608,0.261,0.262,0.2615,0.2589,0.2653,0.2684,0.2643,0.2645,0.2776,0.2847,0.2652,0.259,0.2633,0.244,0.2434,0.2379,0.2328,0.2213,0.2265,0.231,0.2173,0.1809,0.1805,0.1802,0.1799,0,0,0.2573,0.2537,0.2529,0.2452,0.2454,0.2382,0.2371,0.2324,0.2357,0.2328,0.2323,0.2536,0.2594,0.219,0.2119,0.1925,0.2083,0.1853,0.2677,0.2597,0.2638,0.273,0.2582,0,0,0,0,0]},{"header":{"parameterUnit":"m.s-1","parameterCategory":2,"la1":30.2991,"la2":30.254,"lo1":-89.0895,"lo2":-89.0444,"dy":0.0017,"dx":0.0017,"nx":28,"ny":28,"refTime":"2024-06-09T03:00:00:Z","depth":"2","parameterNumber":3,"parameterNumberName":"V-component_of_CURRENTS"},"data":[0,0,0,0,0,0,0,0,0,0,0,0,0,0,0,0,0,0,0,0,0,0,0,0,0,0,0,0,0,0,0,0,0,0,0,0,0,0,0,0,0,0,0,0,0,0,0,0,0,0,0,0,0,0,0,0,0,0,0.0269,0.0269,0,0.0234,0.0234,0.0233,0.0209,0.0209,0.0209,0.0209,0.016,0.0158,0.0157,0,0,0,0,0,0,0,0,0,0,0,0,0,0.0266,0.0266,0.0269,0.0269,0.0268,0.0234,0.0234,0.0233,0.0209,0.0209,0.0209,0.0209,0.016,0.0158,0.0157,0,0,0,0,0,0,0,0,0,0,0,0,0,0.0252,0.0267,0.0269,0.0253,0.0251,0.0235,0.0234,0.0233,0.0209,0.0209,0.0209,0.0209,0.016,0.0159,0.0157,0.0148,0,0,0.0151,0.015,0,0,0,0,0,0,0,0,0.0253,0.0252,0.0256,0.0254,0.0252,0.0227,0.0215,0.0204,0.0209,0.0224,0.0209,0.0209,0.0181,0.0178,0.017,0.0146,0.0144,0.0151,0.015,0.0149,0.0149,0,0,0,0,0,0,0,0.0254,0.0253,0.0254,0.0255,0.0253,0.0231,0.0229,0.0212,0.0203,0.0223,0.0221,0.0219,0.018,0.0172,0.0169,0.0143,0.0151,0.0149,0.0148,0.0148,0.0118,0.0118,0,0,0,0,0,0,0.0263,0.0255,0.0255,0.0253,0.0253,0.0232,0.0229,0.0234,0.0203,0.0199,0.0219,0.0218,0.0175,0.0171,0.0167,0.0175,0.0149,0.0147,0.0146,0.0118,0.0118,0.0119,0,0,0,0,0,0,0.0264,0.0264,0.0257,0.0253,0.0251,0.0232,0.0237,0.0234,0.023,0.0201,0.0196,0.022,0.0175,0.017,0.0162,0.0172,0.0147,0.0145,0.0117,0.0118,0.0118,0.0178,0,0,0,0,0,0,0.0264,0.0264,0.027,0.0254,0.0252,0.0256,0.0238,0.0233,0.0229,0.0227,0.02,0.0195,0.0175,0.0165,0.016,0.0169,0.0143,0.0117,0.0118,0.0118,0.0176,0.0181,0.0185,0,0,0,0,0,0.0264,0.0276,0.0271,0.0271,0.0261,0.0257,0.0254,0.0238,0.0229,0.0233,0.0216,0.0196,0.0165,0.0164,0.0158,0.0167,0.0117,0.0117,0.0118,0.0174,0.018,0.0185,0,0,0,0,0,0,0.0277,0.0274,0.0269,0.0279,0.0272,0.0253,0.0255,0.0243,0.0232,0.023,0.0202,0.0196,0.0191,0.0171,0.017,0.0159,0.0137,0.0136,0.0181,0.0186,0.0191,0.021,0.0142,0,0,0,0,0,0.0284,0.0293,0.0283,0.0292,0.0292,0.0274,0.027,0.026,0.0247,0.0242,0.0223,0.0203,0.0189,0.0182,0.0164,0.0161,0.0137,0.0161,0.0165,0.017,0.0181,0.0155,0.0159,0.0121,0.0121,0.0121,0,0,0.029,0.0291,0.0295,0.0296,0.0289,0.0299,0.0271,0.0271,0.028,0.0238,0.0244,0.0217,0.0191,0.0187,0.0183,0.0173,0.0166,0.017,0.0174,0.0183,0.0157,0.016,0.0164,0.0121,0.0121,0.0121,0,0,0.0313,0.0311,0.0328,0.0327,0.0323,0.0316,0.032,0.0305,0.0301,0.0301,0.0272,0.0256,0.0236,0.0218,0.0207,0.0225,0.019,0.0216,0.0257,0.0233,0.0236,0.0238,0.0208,0.0207,0.022,0.022,0.022,0,0.0321,0.0345,0.0331,0.0347,0.0356,0.033,0.0353,0.0344,0.0328,0.0331,0.0312,0.0283,0.0253,0.0253,0.0256,0.0237,0.0215,0.0241,0.024,0.0241,0.0243,0.0211,0.021,0.0223,0.0223,0.0223,0.0222,0,0.0358,0.0376,0.0386,0.0404,0.0409,0.0423,0.0415,0.0416,0.0406,0.0395,0.039,0.0348,0.0332,0.0315,0.0291,0.0289,0.0267,0.0247,0.0229,0.0251,0.0215,0.0213,0.0228,0.0226,0.0226,0.0225,0,0,0.0381,0.0409,0.0413,0.0438,0.0443,0.0456,0.0472,0.0485,0.0506,0.0474,0.0496,0.0451,0.0422,0.0407,0.0367,0.0343,0.0323,0.0305,0.0302,0.0281,0.0267,0.0253,0.0248,0.0305,0.0305,0.0305,0.0236,0,0.0418,0.0469,0.0469,0.052,0.0551,0.0539,0.0563,0.0566,0.0561,0.0573,0.0524,0.0527,0.0459,0.0457,0.0417,0.0355,0.032,0.0344,0.0244,0.0241,0.0231,0.0246,0.0263,0.0204,0.0233,0.0232,0.0232,0,0.0459,0.0492,0.0549,0.0598,0.061,0.0632,0.0674,0.0694,0.0693,0.0689,0.0668,0.063,0.0591,0.0533,0.0427,0.0446,0.0361,0.0303,0.0299,0.0267,0.0223,0.0187,0.0197,0.0227,0.0228,0.0228,0.0228,0,0.05,0.0551,0.0604,0.0619,0.0663,0.0687,0.0714,0.0729,0.0768,0.0768,0.0794,0.0723,0.0711,0.0597,0.0464,0.0448,0.0349,0.0308,0.0212,0.0209,0.0195,0.0191,0.023,0.023,0.023,0.0231,0.0231,0,0.0546,0.0589,0.0629,0.0657,0.0735,0.0742,0.082,0.0832,0.0867,0.0935,0.0861,0.0892,0.0729,0.065,0.0504,0.0358,0.0373,0.0226,0.0196,0.0215,0.0214,0.0212,0.0211,0.0228,0.0229,0.0229,0.023,0,0.0584,0.0606,0.0675,0.073,0.0758,0.0814,0.0904,0.0959,0.0981,0.1068,0.1079,0.1025,0.0928,0.0753,0.0577,0.0429,0.0279,0.0219,0.025,0.0225,0.014,0.0143,0.0102,0.0101,0.0101,0.01,0.0099,0,0.0608,0.0646,0.0733,0.0784,0.0813,0.0899,0.0966,0.1015,0.1085,0.1159,0.121,0.1146,0.1122,0.085,0.0587,0.0335,0.0291,0.0169,0.0135,0.0155,0.013,0.0134,0.0137,0.0131,0.0131,0.013,0.013,0,0.0655,0.0682,0.0739,0.085,0.0927,0.1032,0.113,0.1207,0.1284,0.1364,0.1443,0.1431,0.1185,0.094,0.0589,0.0406,0.0208,0.0156,0.0177,0.0167,0.0178,0.0154,0.0158,0.0128,0.0129,0.0129,0.0129,0.0129,0.0688,0.0739,0.0816,0.0922,0.1019,0.1149,0.125,0.1362,0.1502,0.1625,0.1604,0.1591,0.1301,0.0862,0.0549,0.0206,0.0223,0.0084,0.0086,0.0088,0.0111,0.0121,0.0063,0.0063,0.0063,0.0063,0.0063,0,0.0731,0.0789,0.0885,0.1011,0.112,0.1174,0.135,0.1453,0.1628,0.1728,0.1794,0.1524,0.125,0.0905,0.0414,0.0124,0.009,0.001,0.0038,0.0042,0.0045,0.0066,0.0006,0.0005,0.0004,0.0003,0,0,0.0753,0.0842,0.0891,0.1068,0.1165,0.1331,0.1441,0.1597,0.1709,0.1812,0.1808,0.1765,0.136,0.0991,0.0591,0.0304,0.0235,0.0234,0.0311,0.0396,0.0403,0.012,0.016,0,0,0,0,0]}],[{"header":{"parameterUnit":"m.s-1","parameterCategory":2,"la1":30.2991,"la2":30.254,"lo1":-89.0895,"lo2":-89.0444,"dy":0.0017,"dx":0.0017,"nx":28,"ny":28,"refTime":"2024-06-09T03:00:00:Z","depth":"4","parameterNumber":2,"parameterNumberName":"U-component_of_CURRENTS"},"data":[0,0,0,0,0,0,0,0,0,0,0,0,0,0,0,0,0,0,0,0,0,0,0,0,0,0,0,0,0,0,0,0,0,0,0,0,0,0,0,0,0,0,0,0,0,0,0,0,0,0,0,0,0,0,0,0,0,0,0.1896,0.1897,0,0.1948,0.1948,0.1948,0.2003,0.2004,0.2005,0.2005,0.2078,0.2079,0.208,0,0,0,0,0,0,0,0,0,0,0,0,0,0.1838,0.1839,0.1896,0.1897,0.1898,0.1947,0.1948,0.1949,0.2003,0.2004,0.2005,0.2006,0.2077,0.2078,0.208,0,0,0,0,0,0,0,0,0,0,0,0,0,0.1872,0.1839,0.1896,0.1932,0.1936,0.1947,0.1948,0.1949,0.2002,0.2004,0.2005,0.2006,0.2077,0.2078,0.208,0.2061,0,0,0.2085,0.2085,0,0,0,0,0,0,0,0,0.187,0.1874,0.1926,0.193,0.1934,0.1972,0.1954,0.1988,0.2002,0.1975,0.2005,0.2007,0.2044,0.2049,0.2052,0.2065,0.2068,0.2085,0.2086,0.2086,0.2087,0,0,0,0,0,0,0,0.1868,0.1872,0.1915,0.1927,0.1932,0.1944,0.195,0.1961,0.2,0.1978,0.1982,0.199,0.2047,0.205,0.2054,0.2069,0.2085,0.2086,0.2087,0.2088,0.2194,0.2196,0,0,0,0,0,0,0.1864,0.187,0.1913,0.1916,0.1907,0.1944,0.1951,0.1957,0.2,0.2008,0.1989,0.1993,0.2047,0.2052,0.2057,0.2151,0.2086,0.2088,0.2089,0.2193,0.2195,0.2197,0,0,0,0,0,0,0.1862,0.1867,0.1911,0.1896,0.1903,0.1944,0.195,0.1957,0.2004,0.2009,0.2017,0.2034,0.2048,0.2055,0.2108,0.215,0.2089,0.209,0.219,0.2193,0.2196,0.2267,0,0,0,0,0,0,0.186,0.1866,0.189,0.1895,0.1903,0.1946,0.1949,0.1957,0.2005,0.2012,0.2049,0.2055,0.205,0.2106,0.2109,0.2151,0.2091,0.2188,0.2192,0.2195,0.2262,0.2272,0.228,0,0,0,0,0,0.1858,0.1877,0.1891,0.1898,0.1928,0.1947,0.1953,0.1985,0.2006,0.2032,0.2063,0.2056,0.2131,0.2108,0.2112,0.2156,0.2186,0.2191,0.2195,0.2258,0.227,0.228,0,0,0,0,0,0,0.1867,0.1885,0.19,0.1926,0.195,0.1958,0.199,0.2008,0.2051,0.2071,0.2076,0.2084,0.2147,0.2141,0.2116,0.2198,0.2159,0.2164,0.2206,0.2217,0.2225,0.2218,0.2093,0,0,0,0,0,0.1878,0.1901,0.1916,0.1944,0.1959,0.1983,0.2004,0.2025,0.2052,0.2074,0.2099,0.2129,0.2158,0.2182,0.2201,0.2243,0.2244,0.2275,0.2284,0.2291,0.229,0.2339,0.2352,0.2211,0.2211,0.2211,0,0,0.1889,0.1904,0.1919,0.1949,0.1972,0.1996,0.2001,0.2043,0.2074,0.2074,0.214,0.2164,0.2177,0.2228,0.2256,0.2235,0.2335,0.2297,0.2303,0.2297,0.2345,0.2359,0.2371,0.2214,0.2213,0.2213,0,0,0.1906,0.1939,0.1959,0.1983,0.2024,0.2036,0.2058,0.209,0.2125,0.218,0.2191,0.2242,0.2286,0.2302,0.2315,0.2384,0.2381,0.2401,0.2442,0.2491,0.2503,0.2513,0.2538,0.255,0.2405,0.2406,0.2406,0,0.1925,0.1945,0.197,0.1995,0.2022,0.2059,0.2086,0.2119,0.2169,0.2201,0.2217,0.2301,0.2318,0.2371,0.2401,0.2405,0.2426,0.2399,0.2502,0.2512,0.2522,0.2545,0.2557,0.2409,0.2409,0.2409,0.2408,0,0.1938,0.1975,0.1993,0.2034,0.2067,0.2101,0.2141,0.2191,0.2241,0.2272,0.2355,0.2383,0.2433,0.2452,0.245,0.2527,0.2519,0.2508,0.2473,0.254,0.256,0.2572,0.2415,0.2414,0.2412,0.2411,0,0,0.1924,0.1989,0.2001,0.2026,0.2093,0.2112,0.2182,0.224,0.2293,0.2359,0.2427,0.2487,0.2518,0.2533,0.2546,0.2586,0.2675,0.2584,0.2585,0.2604,0.2781,0.2595,0.259,0.2694,0.2696,0.2698,0.2769,0,0.1931,0.1976,0.2012,0.2067,0.2092,0.2154,0.2209,0.2276,0.2345,0.2422,0.2477,0.255,0.2544,0.2588,0.263,0.2671,0.2709,0.2656,0.2715,0.2716,0.254,0.2598,0.2706,0.2778,0.278,0.2782,0.2783,0,0.1923,0.1957,0.2009,0.208,0.2099,0.2147,0.2245,0.2302,0.2415,0.2474,0.256,0.2609,0.2695,0.2679,0.2777,0.2751,0.2774,0.279,0.2793,0.2598,0.2551,0.2695,0.2804,0.2802,0.2801,0.2799,0.2798,0,0.1876,0.1951,0.1993,0.2019,0.2107,0.2158,0.222,0.2329,0.2392,0.2526,0.2594,0.2687,0.2762,0.281,0.2858,0.2839,0.295,0.2923,0.2769,0.2757,0.2871,0.2859,0.2983,0.2983,0.2983,0.2983,0.2983,0,0.1843,0.1882,0.1983,0.2004,0.2069,0.2146,0.2235,0.2311,0.2438,0.2509,0.2628,0.2689,0.2806,0.2879,0.2896,0.2865,0.2987,0.2777,0.2763,0.29,0.289,0.2879,0.2866,0.2986,0.2985,0.2985,0.2984,0,0.1776,0.1844,0.1898,0.2006,0.2048,0.2101,0.2241,0.2291,0.2433,0.2536,0.2589,0.2736,0.2818,0.2898,0.2982,0.2897,0.2895,0.2853,0.2999,0.2993,0.2658,0.2648,0.2674,0.2668,0.2663,0.2659,0.2656,0,0.1738,0.1762,0.189,0.1927,0.1984,0.208,0.2135,0.2278,0.2331,0.2529,0.2554,0.2705,0.2778,0.2745,0.2842,0.2851,0.2816,0.2789,0.2703,0.2642,0.2628,0.2626,0.2623,0.2648,0.2646,0.2645,0.2644,0,0.1665,0.1733,0.178,0.186,0.1927,0.1984,0.2079,0.2105,0.2259,0.2413,0.2453,0.2495,0.2579,0.2623,0.2657,0.2658,0.2789,0.2735,0.2745,0.2663,0.261,0.26,0.2603,0.2626,0.2629,0.263,0.2631,0,0.1621,0.1637,0.1712,0.1763,0.1841,0.1852,0.192,0.1967,0.2039,0.2242,0.2252,0.2405,0.2549,0.2525,0.2557,0.2543,0.2492,0.2389,0.2415,0.2436,0.2323,0.2218,0.2102,0,0,0,0,0,0.156,0.1558,0.1601,0.1634,0.1702,0.1749,0.1855,0.1923,0.2076,0.204,0.2136,0.2197,0.2238,0.232,0.2257,0.2456,0.251,0.237,0.2406,0.2529,0.255,0.2437,0,0,0,0,0,0,0.1516,0.1556,0.1558,0.1514,0.1515,0.1565,0.1631,0.1736,0.1721,0.1891,0.1926,0.2053,0.2133,0.2252,0.2213,0.2237,0.2209,0.2469,0.2462,0.2518,0.2536,0.2552,0.2444,0,0,0,0,0]},{"header":{"parameterUnit":"m.s-1","parameterCategory":2,"la1":30.2991,"la2":30.254,"lo1":-89.0895,"lo2":-89.0444,"dy":0.0017,"dx":0.0017,"nx":28,"ny":28,"refTime":"2024-06-09T03:00:00:Z","depth":"4","parameterNumber":3,"parameterNumberName":"V-component_of_CURRENTS"},"data":[0,0,0,0,0,0,0,0,0,0,0,0,0,0,0,0,0,0,0,0,0,0,0,0,0,0,0,0,0,0,0,0,0,0,0,0,0,0,0,0,0,0,0,0,0,0,0,0,0,0,0,0,0,0,0,0,0,0,0.0194,0.0194,0,0.0173,0.0173,0.0173,0.016,0.016,0.016,0.016,0.013,0.0129,0.0128,0,0,0,0,0,0,0,0,0,0,0,0,0,0.0189,0.0189,0.0194,0.0194,0.0194,0.0173,0.0173,0.0172,0.016,0.016,0.016,0.016,0.013,0.0129,0.0128,0,0,0,0,0,0,0,0,0,0,0,0,0,0.0181,0.0189,0.0194,0.0185,0.0185,0.0173,0.0173,0.0172,0.016,0.016,0.016,0.016,0.0131,0.0129,0.0128,0.012,0,0,0.0124,0.0124,0,0,0,0,0,0,0,0,0.0182,0.0181,0.0187,0.0186,0.0185,0.017,0.016,0.0155,0.016,0.0169,0.016,0.016,0.0143,0.0141,0.0136,0.0119,0.0118,0.0124,0.0124,0.0123,0.0123,0,0,0,0,0,0,0,0.0182,0.0182,0.0185,0.0187,0.0186,0.0171,0.017,0.0159,0.0155,0.0168,0.0167,0.0166,0.0142,0.0137,0.0135,0.0117,0.0124,0.0123,0.0123,0.0122,0.0105,0.0105,0,0,0,0,0,0,0.0188,0.0183,0.0186,0.0184,0.0184,0.0171,0.017,0.0174,0.0156,0.0153,0.0166,0.0166,0.0139,0.0137,0.0134,0.0146,0.0123,0.0122,0.0121,0.0105,0.0105,0.0105,0,0,0,0,0,0,0.0188,0.0189,0.0187,0.0183,0.0182,0.0172,0.0176,0.0174,0.0174,0.0154,0.0151,0.0169,0.0139,0.0136,0.0133,0.0144,0.0121,0.012,0.0104,0.0105,0.0105,0.0156,0,0,0,0,0,0,0.0188,0.0189,0.0195,0.0184,0.0183,0.0188,0.0176,0.0173,0.0173,0.0172,0.0156,0.0153,0.0139,0.0136,0.0132,0.0142,0.0119,0.0104,0.0105,0.0105,0.0154,0.0158,0.0162,0,0,0,0,0,0.0188,0.0198,0.0196,0.0196,0.0191,0.0189,0.0187,0.0178,0.0174,0.0178,0.0168,0.0154,0.0136,0.0135,0.0131,0.0141,0.0104,0.0104,0.0105,0.0152,0.0157,0.0162,0,0,0,0,0,0,0.0198,0.0197,0.0195,0.0203,0.02,0.0187,0.019,0.0183,0.0178,0.0178,0.0159,0.0156,0.0156,0.014,0.0139,0.0136,0.0117,0.0117,0.0154,0.0159,0.0162,0.0177,0.0118,0,0,0,0,0,0.0204,0.0212,0.0206,0.0214,0.0214,0.0203,0.0201,0.0196,0.0188,0.0186,0.0175,0.0162,0.0154,0.0151,0.0139,0.014,0.0118,0.0142,0.0146,0.0149,0.0157,0.0133,0.0136,0.0108,0.0108,0.0108,0,0,0.0209,0.021,0.0215,0.0216,0.0213,0.0223,0.0202,0.0204,0.0214,0.0183,0.0194,0.0175,0.0156,0.0158,0.0156,0.0148,0.0144,0.015,0.0153,0.016,0.0134,0.0137,0.014,0.0108,0.0108,0.0108,0,0,0.0226,0.0227,0.0241,0.0242,0.0241,0.0237,0.0241,0.0233,0.0232,0.0237,0.0217,0.0207,0.0196,0.0185,0.0178,0.0195,0.0164,0.0189,0.0223,0.02,0.0202,0.0204,0.0176,0.0175,0.0193,0.0193,0.0193,0,0.0233,0.0252,0.0243,0.0257,0.0266,0.0249,0.0268,0.0264,0.0256,0.026,0.0248,0.0232,0.0211,0.0215,0.0219,0.0205,0.0184,0.0209,0.0205,0.0207,0.0208,0.0178,0.0177,0.0195,0.0195,0.0195,0.0194,0,0.026,0.0277,0.0286,0.0302,0.0309,0.0322,0.0319,0.0323,0.032,0.0314,0.0315,0.0286,0.0278,0.0266,0.0249,0.0248,0.0228,0.0212,0.0196,0.0214,0.0181,0.0179,0.0199,0.0198,0.0197,0.0197,0,0,0.0274,0.0301,0.0305,0.0328,0.0337,0.0348,0.0366,0.038,0.0399,0.038,0.04,0.0372,0.0351,0.0341,0.0312,0.0291,0.0272,0.0259,0.0257,0.0236,0.0218,0.0196,0.019,0.0256,0.0256,0.0256,0.0191,0,0.0302,0.0343,0.0348,0.0393,0.0417,0.0415,0.0439,0.0446,0.0446,0.0458,0.0424,0.043,0.0381,0.0382,0.035,0.0297,0.0268,0.0291,0.02,0.0197,0.0179,0.0187,0.0255,0.0189,0.0188,0.0188,0.0187,0,0.033,0.0358,0.0406,0.0453,0.0464,0.0488,0.0528,0.0548,0.0552,0.0551,0.0539,0.0511,0.0482,0.0438,0.035,0.0367,0.0298,0.0248,0.0244,0.0206,0.017,0.0167,0.0182,0.0182,0.0183,0.0183,0.0183,0,0.0354,0.0401,0.0448,0.0461,0.0505,0.0531,0.056,0.0577,0.0612,0.0616,0.0636,0.0583,0.0573,0.0481,0.037,0.0362,0.0268,0.0242,0.0153,0.015,0.0167,0.0166,0.0176,0.0176,0.0176,0.0176,0.0176,0,0.0383,0.0421,0.0466,0.049,0.0559,0.0573,0.0643,0.0658,0.0691,0.0742,0.0691,0.0707,0.0585,0.0514,0.0397,0.0268,0.0283,0.0162,0.0136,0.0189,0.0191,0.0164,0.0164,0.0174,0.0174,0.0175,0.0175,0,0.0401,0.0427,0.0488,0.0545,0.0574,0.0624,0.0711,0.0756,0.078,0.0843,0.0853,0.0806,0.0714,0.0578,0.0429,0.0316,0.0188,0.0136,0.0206,0.0184,0.0077,0.008,0.0033,0.0032,0.0031,0.003,0.0029,0,0.0413,0.0445,0.0531,0.0577,0.0609,0.0689,0.0748,0.0799,0.0852,0.0903,0.0934,0.0874,0.082,0.0599,0.0439,0.0214,0.0173,0.0095,0.0079,0.0086,0.0064,0.0069,0.0073,0.0028,0.0027,0.0027,0.0027,0,0.0435,0.0467,0.0518,0.0616,0.0689,0.0779,0.0865,0.0911,0.0976,0.0998,0.1005,0.0898,0.0793,0.0606,0.0432,0.0267,0.014,0.0083,0.0084,0.0068,0.0078,0.0059,0.0064,0.0023,0.0024,0.0024,0.0024,0,0.0454,0.0493,0.0563,0.0651,0.0747,0.0841,0.0889,0.0953,0.1009,0.1056,0.1053,0.0942,0.0878,0.0634,0.0474,0.031,0.0256,0.0181,0.0176,0.0178,0.023,0.0264,0.0249,0,0,0,0,0,0.0469,0.0514,0.0594,0.0691,0.0786,0.085,0.0955,0.0994,0.1055,0.1066,0.1064,0.0965,0.0742,0.0648,0.0481,0.0433,0.0214,0.0226,0.0122,0.0003,0.0007,0.004,0,0,0,0,0,0,0.0478,0.0549,0.059,0.0709,0.0781,0.0895,0.0967,0.1011,0.1018,0.1048,0.0936,0.0896,0.0681,0.0838,0.047,0.0422,0.0325,0.013,0.0125,0.0,0.0004,0.0008,0.0043,0,0,0,0,0]}]]